Location: Quaker Farms
(41.4276°N, 73.1557°W)
Time: 21:13:41
(UTC+00:00)

S-56A Canister/Altair - Pass Details

Date: 17 June 2021
Orbit: 631 x 2501 km, 38.9° (Epoch: 30 July)

Event Time Altitude Azimuth Distance (km) Brightness Sun altitude
Rises 14:02:12 0° 276° (W) 3,275 10.4 50.1°
Reaches altitude 10° 14:04:22 10° 272° (W) 2,492 9.9 50.5°
Maximum altitude 14:10:06 54° 195° (SSW) 1,305 9.4 51.5°
Drops below altitude 10° 14:18:38 10° 122° (ESE) 3,672 11.8 53.1°
Sets 14:22:28 0° 118° (ESE) 4,968 12.2 53.8°
